Regional Weather Roundup
Issued by NWS Charleston, WV

Home | Current Version | Previous Version | Graphics & Text | Print | Product List | Glossary On
Versions: 1 2 3 4 5 6 7 8 9 10 11 12 13 14 15 16 17 18 19 20 21 22 23 24 25 26 27 28 29 30 31 32 33 34 35 36 37 38 39 40 41 42 43 44 45 46 47 48 49 50
000
ASUS41 KRLX 061110
RWRRLX
West Virginia Regional Weather Roundup
National Weather Service Charleston WV
700 AM EDT WED MAY 06 2015

Note: "fair" indicates few or no clouds below 12,000 feet with no
significant weather and/or obstructions to visibility.

WVZ003-061200-
Northern Panhandle of West Virginia

CITY           SKY/WX    TMP DP  RH WIND       PRES   REMARKS
WHEELING       FOG       53  52  96 SE3       30.22S VSB<1/4
$$

WVZ009-061200-
Northwest West Virginia

CITY           SKY/WX    TMP DP  RH WIND       PRES   REMARKS
PARKERSBURG    CLEAR     54  53  97 CALM      30.25R FOG
$$

WVZ006-061200-
Western West Virginia

CITY           SKY/WX    TMP DP  RH WIND       PRES   REMARKS
HUNTINGTON     MOCLDY    56  55  97 E3        30.21R
$$

WVZ015-061200-
West Central West Virginia

CITY           SKY/WX    TMP DP  RH WIND       PRES   REMARKS
CHARLESTON     MOCLDY    57  55  93 CALM      30.23R
$$

WVZ022-031-061200-
North Central West Virginia

CITY           SKY/WX    TMP DP  RH WIND       PRES   REMARKS
CLARKSBURG     FOG       54  54 100 CALM      30.24R VSB 1/4
MORGANTOWN     PTCLDY    57  53  86 CALM      30.24R FOG
$$

WVZ025-035-042-045-061200-
Southern West Virginia

CITY           SKY/WX    TMP DP  RH WIND       PRES   REMARKS
BECKLEY        CLOUDY    59  51  75 CALM      30.28R
LOGAN            N/A     59  55  88 CALM      30.22R
BLUEFIELD      CLOUDY    62  50  64 W6        30.30R
LEWISBURG      CLOUDY    57  55  92 E3        30.29R
$$

WVZ047-061200-
Northern Mountains of West Virginia

CITY           SKY/WX    TMP DP  RH WIND       PRES   REMARKS
ELKINS         FOG       48  47  96 CALM      30.29R VSB 1/4
$$

WVZ052-061200-
Eastern Panhandle of West Virginia

CITY           SKY/WX    TMP DP  RH WIND       PRES   REMARKS
MARTINSBURG    CLEAR     56  55  97 CALM      30.22R FOG
PETERSBURG     FOG       50  47  90 CALM      30.26R VSB<1/4
$$



USA.gov is the U.S. government's official web portal to all federal, state and local government web resources and services.